Theta_e
324 325 326 326 327 327 328 328 328 325 324 322 320 323 325 325 321 313 305 311 317 329 322 309 308 307 308 304 306 305 295 293 293 295 295 299 299 301 301 302 303 307 308 316 325
324 324 325 326 326 327 327 326 327 325 323 321 322 323 322 322 314 308 320 325 326 329 309 305 304 305 302 303 302 298 294 295 299 298 297 299 301 301 298 299 301 308 320 324 325
323 323 324 325 325 326 326 326 325 324 323 322 322 322 321 317 305 306 325 326 327 324 311 309 307 305 301 301 300 298 296 299 298 300 302 300 298 301 297 294 301 306 317 321 321
322 322 323 324 324 325 326 326 324 324 324 324 322 322 321 314 298 314 325 327 328 320 310 307 304 301 299 297 301 295 300 298 301 301 300 300 301 297 298 298 302 310 320 319 320
321 321 321 322 323 324 324 325 325 325 325 326 325 323 315 304 303 315 324 326 319 314 306 304 301 300 296 298 299 296 298 298 299 300 300 302 299 299 298 299 303 311 319 318 320
320 320 320 321 322 323 324 324 325 325 325 325 325 322 308 296 311 318 315 322 317 310 306 304 302 303 300 298 297 299 298 298 298 298 299 299 296 298 298 300 303 313 314 316 318
320 319 319 320 321 322 323 323 324 324 324 325 324 316 304 301 310 316 317 317 314 309 305 306 305 301 300 296 300 299 294 295 296 298 296 297 294 295 298 299 300 303 306 312 315
319 318 319 319 320 321 322 322 322 323 323 324 323 309 297 310 310 312 312 309 312 310 308 307 305 302 300 299 297 294 292 289 294 296 296 296 290 297 297 298 297 297 297 301 307
318 318 318 318 319 320 320 321 321 322 322 323 310 303 296 310 304 308 309 305 307 307 307 307 303 298 298 292 288 289 284 286 290 295 294 292 289 293 295 296 295 294 295 296 299
317 318 318 318 319 319 319 320 320 320 319 315 309 297 301 298 305 306 307 307 302 302 301 300 298 294 292 289 284 283 284 287 286 291 292 290 290 293 294 294 294 294 294 294 298
316 318 318 318 319 319 317 312 305 301 305 298 298 297 298 302 307 303 305 303 302 298 292 296 291 289 291 290 291 289 288 287 288 292 291 290 290 293 294 292 292 293 294 295 296
317 318 318 318 319 319 313 302 301 303 295 302 301 300 302 301 297 301 304 297 296 291 294 292 288 294 295 293 292 289 286 286 288 291 290 288 289 292 293 293 294 294 294 295 295
317 317 317 317 318 314 307 303 309 305 293 296 300 299 300 301 295 297 301 297 293 290 292 289 291 296 294 291 290 288 286 285 287 289 289 285 284 287 293 294 294 295 295 295 295
317 317 317 317 312 310 305 310 309 305 287 290 293 298 301 300 294 301 302 298 293 291 292 291 294 294 291 290 290 286 291 290 288 284 280 283 277 283 287 290 292 293 293 294 295
317 316 316 316 310 306 308 311 309 300 275 291 293 303 301 294 294 296 299 295 291 291 292 289 290 290 290 291 292 288 291 290 288 286 283 282 279 282 286 287 290 291 292 294 294
316 316 316 312 311 310 310 311 304 285 274 287 292 293 293 293 293 295 295 296 295 291 291 290 293 292 292 292 292 292 289 289 286 284 277 280 280 280 285 287 288 290 293 294 294
315 315 313 311 304 311 311 304 285 277 289 285 286 292 290 289 290 290 289 287 288 284 284 288 288 291 292 289 291 290 285 279 277 276 276 279 279 283 287 288 291 292 293 293 294
315 315 312 310 311 310 307 292 276 282 286 291 289 290 287 290 289 289 287 285 289 288 285 282 281 288 291 289 287 286 285 278 272 274 276 279 278 285 289 289 292 294 294 294 295
313 311 306 307 311 310 297 282 280 284 289 288 289 286 284 289 288 287 286 287 288 289 285 282 283 289 290 290 291 286 283 287 280 272 275 278 282 288 289 288 291 293 294 293 294
304 304 301 306 310 305 291 284 286 292 292 290 284 286 281 285 284 284 285 289 289 291 288 287 281 287 288 290 290 288 289 282 281 270 269 276 278 281 285 287 289 292 292 293 294
297 292 297 304 308 297 285 286 289 296 294 289 287 286 285 285 285 283 285 288 291 290 291 289 286 283 287 286 285 285 284 284 285 280 274 273 278 284 287 289 289 290 293 293 293
291 285 297 303 293 292 286 289 293 294 296 294 291 289 287 288 285 285 284 288 293 291 287 290 286 281 283 287 288 287 286 286 282 279 280 280 279 289 288 290 290 291 294 293 294
285 285 296 296 285 287 289 289 292 294 293 293 291 292 290 288 283 286 287 293 292 291 289 291 284 278 281 284 287 286 286 287 286 282 278 276 278 289 289 290 291 293 293 294 294
287 284 287 290 288 290 287 287 288 295 294 295 292 292 289 288 289 287 288 292 294 292 295 295 287 283 279 282 285 283 285 286 286 280 279 280 281 285 288 290 292 292 294 294 294
288 284 285 284 284 289 289 288 286 287 292 294 291 291 289 285 287 287 289 289 293 294 292 291 282 284 286 287 286 285 286 286 284 287 282 286 284 287 289 291 293 294 294 294 293
284 284 286 285 285 287 290 286 287 288 291 289 289 291 291 287 288 286 288 288 288 290 289 290 279 284 281 286 286 283 286 287 287 287 286 283 284 289 291 292 293 293 294 294 293
289 290 288 287 285 284 284 286 288 290 288 291 293 291 289 291 293 293 293 293 292 289 288 288 284 280 278 283 282 279 284 285 287 288 288 283 289 289 288 291 293 293 294 294 293
Wind_Speed
19 19 17 16 17 17 17 17 18 17 14 12 7 6 7 7 5 1 4 5 2 2 3 4 6 6 2 5 3 2 4 4 5 3 4 4 5 3 1 7 5 4 3 8 12
18 18 17 16 18 18 19 16 15 17 17 19 8 5 7 7 1 8 4 5 4 2 2 5 4 7 5 4 3 3 4 9 6 4 6 4 6 8 5 5 4 6 8 12 12
17 16 17 15 14 18 17 18 17 18 19 18 12 4 5 2 3 9 12 13 8 6 2 4 4 5 3 1 4 4 5 5 1 5 11 10 3 4 9 2 7 12 11 9 7
18 17 15 15 12 16 17 19 19 18 18 20 18 12 5 3 8 5 23 14 7 6 3 5 4 5 3 3 4 3 6 0 3 1 5 10 7 5 6 5 9 14 17 9 9
18 16 15 17 15 15 15 17 18 18 18 17 18 20 6 0 8 6 19 13 6 5 6 3 3 5 5 2 6 5 4 3 3 2 1 8 6 6 6 4 7 13 13 11 11
17 15 14 16 17 15 15 14 16 16 15 16 17 17 5 6 7 5 11 11 10 13 10 4 5 4 3 8 11 5 5 4 3 2 1 6 3 4 6 7 9 15 12 11 12
15 15 15 17 18 16 15 15 16 16 14 14 18 7 4 11 3 6 11 10 11 13 11 6 6 4 2 4 9 6 5 0 4 4 3 6 1 6 5 8 11 10 9 10 11
14 18 17 16 17 17 16 16 17 14 14 14 15 4 6 6 5 7 4 5 7 4 4 12 7 3 4 5 3 7 6 4 4 7 3 3 6 9 7 10 10 10 8 9 10
17 17 19 17 18 17 20 19 17 14 14 15 5 4 6 1 7 7 6 7 7 5 4 5 6 5 3 4 1 4 5 5 3 7 3 4 5 3 8 8 8 8 9 9 8
12 21 21 21 19 19 21 19 18 14 10 7 3 4 5 5 4 8 7 6 5 7 5 5 6 5 3 5 12 4 4 4 6 7 4 4 5 4 4 8 9 8 8 9 9
17 20 21 21 21 25 21 13 11 5 8 8 11 4 5 5 3 4 7 7 5 5 7 4 5 18 9 6 6 4 6 8 2 4 5 8 6 10 7 5 8 9 8 8 10
21 27 26 23 24 27 15 7 8 11 8 13 5 4 4 3 4 5 8 8 8 8 7 5 17 13 9 8 10 5 5 6 2 1 5 2 11 9 7 8 9 11 9 9 5
26 30 29 28 29 18 16 12 14 14 7 3 5 13 5 4 4 12 12 5 7 8 11 8 5 9 13 6 12 6 6 6 7 3 1 3 8 6 9 6 7 9 8 6 10
29 30 32 31 21 16 16 19 3 2 5 6 8 7 6 5 3 2 7 6 6 16 9 5 4 16 8 12 9 7 4 8 12 6 4 5 7 6 7 9 8 8 8 8 8
33 33 34 30 12 15 19 10 0 4 6 12 7 5 9 8 8 5 3 2 9 8 8 6 8 10 7 15 8 5 6 8 5 5 6 2 3 10 2 4 8 10 6 7 8
34 34 35 16 10 16 6 7 3 4 8 8 8 10 13 6 3 5 5 2 3 5 5 3 1 4 7 2 7 8 8 8 5 4 0 6 6 7 5 7 4 4 7 7 8
28 30 29 12 12 18 8 5 5 7 6 9 8 12 15 8 5 5 12 5 8 9 7 2 2 2 3 7 4 7 6 3 3 1 7 1 4 10 5 4 8 11 9 9 8
33 32 20 4 16 17 7 8 6 7 9 5 9 17 13 11 2 8 9 8 7 3 7 6 4 7 4 7 9 6 8 8 8 5 5 2 8 8 4 1 10 9 9 8 8
23 15 10 4 18 13 14 14 10 8 7 9 11 19 6 8 10 6 13 18 8 8 8 7 3 2 2 1 8 6 4 5 8 3 5 5 6 7 3 5 7 10 10 9 8
5 6 8 1 9 12 15 15 5 9 9 14 7 7 8 18 6 9 17 13 11 9 2 4 6 3 2 1 3 5 8 4 3 5 3 4 4 6 8 11 8 9 9 8 7
1 6 2 2 8 13 20 14 12 1 14 8 7 7 8 14 7 11 16 4 16 9 5 4 5 1 2 6 9 4 4 2 6 6 7 3 8 8 8 13 16 10 11 11 9
4 4 2 4 14 13 14 10 4 4 4 3 6 6 14 13 6 11 14 7 15 12 10 2 6 4 6 3 3 2 6 5 6 6 2 3 7 2 2 9 14 12 11 8 8
3 2 3 1 11 17 7 7 1 3 4 3 4 3 5 12 5 6 8 1 3 14 14 8 1 5 5 3 2 6 4 4 5 4 6 7 8 3 2 6 7 13 11 11 11
2 3 3 4 2 15 18 17 10 2 3 4 4 5 6 8 3 9 4 1 3 5 8 8 4 8 10 8 8 7 7 6 6 4 5 8 4 4 6 8 8 9 11 11 10
2 2 2 6 1 11 17 15 7 6 1 3 2 5 7 6 4 6 5 2 5 0 5 6 8 5 3 1 4 7 12 12 9 19 9 18 10 7 10 11 13 10 11 13 13
3 1 1 3 4 7 16 14 20 5 6 3 4 6 2 7 7 8 9 5 6 2 4 2 2 5 1 3 3 1 9 17 20 19 13 5 7 7 7 8 9 13 15 15 15
1 1 2 2 2 3 3 6 12 10 3 4 6 5 4 4 5 4 4 7 11 10 8 8 7 4 6 4 4 5 14 16 17 14 23 15 20 7 5 11 14 14 17 17 16
Wind_Direction
195 182 186 185 172 171 175 171 164 155 165 172 152 74 69 101 97 81 202 152 110 207 129 109 42 86 41 272 287 42 80 214 242 199 207 212 120 54 121 97 50 31 128 161 150
194 191 180 184 177 172 174 170 171 160 158 165 170 107 58 42 99 226 237 230 145 207 101 124 133 142 185 221 268 127 139 215 208 197 213 167 129 135 103 101 67 57 54 119 138
190 195 177 174 177 168 179 166 171 158 150 159 156 152 98 36 138 238 217 233 165 181 312 152 160 156 123 312 219 212 169 253 274 321 155 157 125 146 121 186 179 157 149 143 144
187 188 187 167 182 173 174 172 172 166 168 158 154 149 86 331 187 229 176 208 180 152 206 185 164 117 122 220 237 305 247 183 247 310 155 156 136 157 151 201 196 162 158 152 164
184 181 185 168 175 171 172 170 167 171 172 164 154 140 132 192 270 304 165 180 201 153 193 166 119 112 171 274 289 222 227 117 296 67 190 128 147 171 143 160 117 137 155 159 168
180 174 180 169 170 171 169 167 160 156 158 159 146 140 119 206 251 177 157 155 172 185 230 199 169 171 171 233 204 243 204 169 217 143 11 120 134 128 202 147 109 149 166 173 175
176 176 176 173 167 165 165 168 158 149 153 157 148 139 176 218 208 180 170 182 182 170 174 224 159 114 104 256 199 228 120 266 189 188 182 110 24 204 200 158 142 159 179 184 192
186 181 175 168 163 166 156 154 141 142 149 155 150 136 220 207 176 147 213 152 173 212 177 191 143 165 163 261 139 154 112 165 245 155 251 134 236 239 190 152 174 178 196 192 210
198 188 171 168 163 158 156 140 129 136 143 136 106 147 246 59 166 174 164 177 164 184 245 130 129 176 208 156 68 184 184 163 193 188 153 162 224 242 169 159 183 194 203 211 221
224 183 168 168 160 149 143 122 117 124 139 171 177 103 243 193 187 162 179 145 150 136 120 158 155 168 172 150 204 174 181 169 168 207 180 184 236 193 186 154 191 213 220 209 205
207 180 169 165 157 153 132 118 129 168 214 185 173 212 126 135 136 159 152 148 124 137 175 204 160 202 192 146 232 199 202 182 166 163 134 201 224 221 218 184 193 212 231 219 192
193 177 169 169 161 151 145 184 180 145 161 255 196 209 101 148 124 176 133 149 152 172 151 171 213 182 169 188 231 208 214 199 3 99 133 186 250 245 210 213 192 199 214 217 229
176 173 167 170 157 151 169 215 187 132 137 194 184 198 166 150 183 181 155 180 151 176 187 182 203 155 176 192 215 195 186 198 164 166 82 97 292 235 240 223 189 217 206 196 203
179 170 167 167 156 159 180 215 222 63 126 179 186 196 142 174 186 176 172 170 171 192 175 190 218 184 169 197 167 202 198 158 141 124 197 143 264 282 236 223 206 212 186 165 126
179 170 163 167 143 172 185 182 95 74 149 172 174 136 146 159 147 231 121 219 183 177 160 189 173 168 185 197 165 190 140 149 136 107 100 226 100 269 111 182 207 198 178 133 119
180 172 159 163 142 165 140 168 85 117 231 174 148 166 144 162 179 127 153 205 206 121 59 151 204 141 181 100 149 137 91 43 49 82 66 223 151 276 213 193 183 136 152 145 114
162 163 160 147 160 157 144 131 113 194 174 169 179 166 156 146 141 168 168 187 174 147 147 91 70 282 156 84 25 111 107 54 23 7 220 333 156 242 252 179 187 159 151 147 129
161 162 166 141 143 150 145 150 178 196 178 135 147 148 169 132 188 170 138 194 247 168 127 151 203 180 184 167 174 167 150 146 174 182 221 12 222 252 226 195 138 140 133 118 115
192 158 146 140 149 155 150 187 192 174 176 130 121 153 146 176 134 138 181 197 211 197 153 149 181 62 63 19 154 207 172 154 102 15 76 214 280 301 121 83 120 138 135 139 137
174 131 119 196 150 160 168 192 194 171 127 133 147 186 158 172 133 177 174 197 208 185 162 182 107 22 323 12 352 185 153 103 14 130 236 269 266 232 205 187 170 164 154 152 135
35 94 24 287 147 168 195 185 189 108 139 143 149 152 168 172 156 175 186 224 197 179 133 124 98 271 129 205 173 159 183 159 119 141 163 162 253 222 212 194 185 176 170 160 149
38 121 313 201 155 192 197 160 233 134 59 127 129 128 175 163 139 187 188 204 179 154 166 123 113 137 209 277 271 321 196 152 166 204 218 155 264 220 311 208 171 170 161 150 141
58 55 355 308 168 180 154 201 100 146 143 132 123 137 130 160 145 165 166 5 152 163 164 176 111 92 14 346 308 221 223 175 108 82 195 140 257 326 341 108 142 147 153 152 148
71 78 21 45 358 172 170 192 189 17 107 113 120 98 113 160 156 172 129 41 50 150 136 112 139 158 181 192 140 198 190 185 138 131 172 223 193 228 208 171 156 149 149 148 150
31 49 342 171 155 174 172 181 150 169 39 112 44 163 149 138 103 150 117 109 27 69 99 127 181 154 13 16 184 166 181 179 192 220 173 234 191 218 203 191 179 156 148 153 161
101 127 75 56 137 133 186 195 186 143 149 182 132 179 74 146 181 170 125 160 174 17 119 75 224 118 36 356 58 61 216 192 207 224 232 106 251 193 190 119 163 172 169 174 174
44 18 123 67 66 104 150 194 197 141 30 71 143 115 119 133 85 77 100 138 152 154 159 147 135 123 228 153 68 328 215 195 214 213 209 214 229 168 178 185 184 176 184 184 176